DTUSAT 1 27842U 03031C 10210.65239812 +.00000022 +00000-0 +30091-4 0 08901 2 27842 098.7022 219.8725 0010355 031.7846 328.3949 14.21045534367216 CUTE-1 1 27844U 03031E 10211.61884037 .00000056 00000-0 46282-4 0 9014 2 27844 098.7100 219.9701 0010897 048.1022 312.1076 14.20720296367259 QUAKESAT 1 27845U 03031F 10210.54459204 +.00000084 +00000-0 +59450-4 0 08819 2 27845 098.7174 218.4222 0010040 068.2712 291.9528 14.20371384366998 AAU CUBESAT 1 27846U 03031G 10210.01837027 +.00000038 +00000-0 +37745-4 0 08020 2 27846 098.7015 219.2399 0010357 032.6028 327.5788 14.21044038367127 CANX-1 1 27847U 03031H 10211.58177404 .00000024 00000-0 30983-4 0 8190 2 27847 098.7012 220.7656 0010182 029.1229 331.0509 14.21022764367299 CUBESAT XI-IV 1 27848U 03031J 10210.52779533 +.00000042 +00000-0 +39780-4 0 08504 2 27848 098.7145 217.9964 0010812 055.4940 304.7257 14.20511857367055 UWE-1 1 28892U 05043C 10210.72936196 +.00000147 +00000-0 +40064-4 0 06928 2 28892 098.0048 093.0298 0017693 148.2982 211.9291 14.59891187253302 CUBESAT XI-V 1 28895U 05043F 10210.68088673 +.00000209 +00000-0 +52899-4 0 06461 2 28895 098.0089 093.7390 0018527 149.2671 210.9613 14.59914421253183 SSETI-EXPRESS DEB 1 28897U 05043H 10211.64730543 .00000137 00000-0 37800-4 0 2090 2 28897 098.0076 094.5664 0017454 145.7312 214.5043 14.60102153245625 CUTE 1.7 (Decayed 2009-10-25) 1 28941U 06005C 09297.68475575 .14491492 29743-5 25760-3 0 5565 2 28941 098.0955 138.9518 0011688 319.8691 040.7485 16.46998778207909 GENESAT 1 29655U 06058C 10211.45507762 .00897380 52701-3 53675-3 0 2093 2 29655 040.0095 102.5909 0012835 278.4198 081.5180 16.17368899206932 MAST 1 31126U 07012K 10210.62490755 +.00000202 +00000-0 +55703-4 0 09263 2 31126 097.9349 250.4367 0095689 094.0765 267.1387 14.53605845174222 LIBERTAD 1 1 31128U 07012M 10210.80051836 -.00000045 00000-0 00000+0 0 9865 2 31128 097.9349 247.8905 0104130 102.1480 259.1390 14.52180816174050 CP3 1 31129U 07012N 10210.10618623 +.00000683 +00000-0 +16683-3 0 06404 2 31129 097.9356 247.4290 0103883 103.7412 257.5385 14.52285467173949 CAPE 1 1 31130U 07012P 10210.78649003 +.00000124 +00000-0 +38835-4 0 09469 2 31130 097.9347 247.9166 0104281 102.3950 258.8861 14.52202588173848 CP4 1 31132U 07012Q 10210.87366601 -.00000190 +00000-0 -31647-4 0 09628 2 31132 097.9372 254.0516 0087147 083.8753 277.2328 14.55336540174327 CANX-6 1 32784U 08021B 10210.21057248 +.00000285 +00000-0 +43313-4 0 07506 2 32784 097.8942 274.1337 0016609 140.4404 219.8076 14.81221291121672 CUTE-1.7+APD II 1 32785U 08021C 10210.57495284 +.00000346 +00000-0 +50513-4 0 07443 2 32785 097.8932 274.9101 0015372 142.6798 217.5490 14.81686897121767 COMPASS 1 1 32787U 08021E 10211.65285538 .00000159 00000-0 26701-4 0 7369 2 32787 097.8917 275.8080 0016517 140.5119 219.7303 14.81919597121936 AAUSAT CUBESAT 2 1 32788U 08021F 10210.63896097 +.00000641 +00000-0 +87178-4 0 07300 2 32788 097.8923 274.9462 0015998 144.6267 215.5983 14.82066122121799 DELFI C3 1 32789U 08021G 10210.71099516 +.00000623 +00000-0 +84571-4 0 07484 2 32789 097.8986 275.5382 0016391 143.1075 217.1257 14.82227995121807 CANX-2 1 32790U 08021H 10210.17941495 +.00000068 +00000-0 +15398-4 0 07336 2 32790 097.8923 274.4252 0015934 144.9352 215.2852 14.81655143121688 SEEDS 1 32791U 08021J 10211.68120560 .00000604 00000-0 83230-4 0 7309 2 32791 097.8925 275.8460 0016602 138.9469 221.3041 14.81699854121890 CP6 1 35003U 09028C 10210.67932043 +.00009946 +00000-0 +20102-3 0 03606 2 35003 040.4597 310.1603 0023564 342.8812 017.1203 15.46067639067299 HAWKSAT 1 1 35004U 09028D 10210.65179438 +.00012114 +00000-0 +23594-3 0 03515 2 35004 040.4617 309.0607 0022533 346.2178 013.8022 15.47025999067298 AEROCUBE 3 1 35005U 09028E 10210.67282824 +.00040782 +00000-0 +61287-3 0 03997 2 35005 040.4637 304.2033 0021051 004.9713 355.1303 15.53806537067351 SWISSCUBE 1 35932U 09051B 10211.71675023 .00005234 00000-0 12986-2 0 4989 2 35932 098.3337 309.0860 0009100 045.5933 314.5115 14.52242296 45053 BEESAT 1 35933U 09051C 10210.70203132 +.00007819 +00000-0 +19109-2 0 05432 2 35933 098.3306 308.2123 0008076 071.3468 288.8562 14.52809741044933 UWE-2 1 35934U 09051D 10211.31427875 .00003310 00000-0 81574-3 0 4328 2 35934 098.3279 308.7203 0007806 088.6942 271.4874 14.52812896 45025 ITUPSAT 1 1 35935U 09051E 10210.75156266 +.00001934 +00000-0 +48744-3 0 02970 2 35935 098.3397 308.3134 0009444 060.6068 299.6009 14.52219193044926